Location: Bretagne
(43.8474°N, 0.4650°W)
Time: 06:10:36
(UTC+00:00)

Cosmos 1452 Rocket - Pass Details

Date: 15 January 2026
Orbit: 762 x 771 km, 74.1° (Epoch: 10 February)

Event Time Altitude Azimuth Distance (km) Brightness Sun altitude
Rises 17:17:15 0° 168° (SSE) 3,217 6.9 -5.2°
Reaches altitude 10° 17:19:53 10° 157° (SSE) 2,298 6.0 -5.7°
Maximum altitude 17:24:17 28° 100° (E) 1,408 4.4 -6.4°
Drops below altitude 10° 17:28:42 10° 42° (NE) 2,317 5.4 -7.1°
Enters shadow 17:30:20 - 35° (NE) 2,874 6.0 -7.4°
